TimeEST,TemperatureF,Dew PointF,Humidity,Sea Level PressureIn,VisibilityMPH,Wind Direction,Wind SpeedMPH,Gust SpeedMPH,PrecipitationIn,Events,Conditions,WindDirDegrees,DateUTC
12:12 AM,30.2,28.4,93,29.92,6.0,NE,3.5,-,N/A,,Overcast,40,2013-02-06 05:12:00
12:53 AM,30.0,28.0,92,29.91,5.0,NNE,3.5,-,N/A,,Overcast,20,2013-02-06 05:53:00
1:29 AM,30.2,28.4,93,29.92,6.0,NNE,5.8,-,N/A,,Overcast,20,2013-02-06 06:29:00
1:53 AM,30.0,28.0,92,29.92,5.0,North,6.9,-,N/A,,Overcast,10,2013-02-06 06:53:00
2:12 AM,30.2,28.4,93,29.92,6.0,North,4.6,-,N/A,,Overcast,360,2013-02-06 07:12:00
2:53 AM,30.0,28.0,92,29.93,5.0,NNW,3.5,-,N/A,,Overcast,330,2013-02-06 07:53:00
3:34 AM,30.2,28.4,93,29.93,5.0,NNW,3.5,-,N/A,,Overcast,340,2013-02-06 08:34:00
4:00 AM,30.2,28.4,93,29.93,5.0,Calm,Calm,-,N/A,,Overcast,0,2013-02-06 09:00:00
4:18 AM,30.2,28.4,93,29.94,5.0,Calm,Calm,-,N/A,,Overcast,0,2013-02-06 09:18:00
4:32 AM,30.2,28.4,93,29.94,4.0,Calm,Calm,-,N/A,,Overcast,0,2013-02-06 09:32:00
4:53 AM,30.0,28.0,92,29.95,5.0,Calm,Calm,-,N/A,,Mostly Cloudy,0,2013-02-06 09:53:00
5:04 AM,30.2,28.4,93,29.96,4.0,Calm,Calm,-,N/A,,Mostly Cloudy,0,2013-02-06 10:04:00
5:53 AM,28.9,27.0,92,29.99,4.0,Calm,Calm,-,N/A,,Mostly Cloudy,0,2013-02-06 10:53:00
6:19 AM,28.4,26.6,93,29.99,4.0,NNW,3.5,-,N/A,,Scattered Clouds,340,2013-02-06 11:19:00
6:53 AM,28.9,27.0,92,30.01,3.0,NNW,3.5,-,N/A,,Mostly Cloudy,330,2013-02-06 11:53:00
7:07 AM,28.4,26.6,93,30.01,2.5,NNW,4.6,-,N/A,,Overcast,330,2013-02-06 12:07:00
7:53 AM,28.9,27.0,92,30.04,2.0,West,3.5,-,N/A,,Partly Cloudy,270,2013-02-06 12:53:00
8:27 AM,30.2,28.4,93,30.05,3.0,West,5.8,-,N/A,,Clear,270,2013-02-06 13:27:00
8:53 AM,33.1,27.0,78,30.06,4.0,West,9.2,-,N/A,,Haze,280,2013-02-06 13:53:00
9:53 AM,35.1,24.1,64,30.07,8.0,WNW,10.4,-,N/A,,Clear,300,2013-02-06 14:53:00
10:53 AM,37.9,23.0,55,30.09,10.0,NNW,9.2,-,N/A,,Clear,330,2013-02-06 15:53:00
11:53 AM,37.9,21.0,51,30.08,10.0,WNW,13.8,19.6,N/A,,Partly Cloudy,300,2013-02-06 16:53:00
12:53 PM,37.9,19.0,47,30.09,10.0,NW,11.5,19.6,N/A,,Mostly Cloudy,310,2013-02-06 17:53:00
1:53 PM,37.0,18.0,46,30.10,10.0,NW,12.7,20.7,N/A,,Overcast,320,2013-02-06 18:53:00
2:53 PM,39.9,18.0,41,30.11,10.0,WNW,13.8,21.9,N/A,,Mostly Cloudy,290,2013-02-06 19:53:00
3:53 PM,37.9,16.0,41,30.14,10.0,WNW,11.5,25.3,N/A,,Partly Cloudy,300,2013-02-06 20:53:00
4:53 PM,37.9,16.0,41,30.16,10.0,NW,6.9,-,N/A,,Clear,310,2013-02-06 21:53:00
5:53 PM,36.0,14.0,41,30.19,10.0,NW,6.9,-,N/A,,Clear,310,2013-02-06 22:53:00
6:53 PM,35.1,12.9,40,30.24,10.0,NNW,6.9,17.3,N/A,,Clear,330,2013-02-06 23:53:00
7:53 PM,34.0,12.0,40,30.27,10.0,NNW,8.1,16.1,N/A,,Clear,330,2013-02-07 00:53:00
8:53 PM,32.0,10.9,42,30.30,10.0,NNW,6.9,-,N/A,,Clear,330,2013-02-07 01:53:00
9:53 PM,30.9,10.0,42,30.31,10.0,NNW,8.1,-,N/A,,Clear,340,2013-02-07 02:53:00
10:53 PM,30.0,10.0,43,30.33,10.0,North,8.1,-,N/A,,Clear,350,2013-02-07 03:53:00
11:53 PM,28.9,7.0,40,30.35,10.0,NNW,5.8,-,N/A,,Clear,330,2013-02-07 04:53:00